Flag Weather past 2 weeks in Magdeburg, Saxony-Anhalt, Germany

Now
50 °F

Partly sunny.


Feels Like: 48 °F
Forecast: 40 / 49 °F
Wind: 5 mph from Southeast

Location: Magdeburg

Current Time: Nov 23, 2014 at 12:30:56 PM

Latest Report: Nov 23, 2014 at 12:00 PM


Visibility: 13 mi

Pressure: 30.19 "Hg

Humidity: 76%

Dew point: 42 °F

Location of MagdeburgLocation

Historic Weather in Magdeburg — Graph

°F

Magdeburg temperature yesterday

Maximum temperature yesterday: 46 °F (at 1:00 PM)
Minimum temperature yesterday: 39 °F (at 11:00 PM)
Average temperature yesterday: 42 °F

Past Weeks' High & Low Weather Summary

 TemperatureHumidityPressure
High57 °F (Nov 8, 1:00 PM)99% (Nov 10, 2:00 AM)30.38 "Hg (Nov 10, 2:00 AM)
Low37 °F (Nov 9, 3:00 AM)67% (Nov 8, 1:00 PM)29.53 "Hg (Nov 16, 2:00 PM)
Average45 °F91%29.95 "Hg
* Reported Nov 8 11:00 AM — Nov 23 11:00 AM, Magdeburg, Weather by CustomWeather, © 2014

Note: Actual official high and low records may vary slightly from our data, if they occured in-between our weather recording intervals... More about our weather records

Advertising

Magdeburg weather history for previous 24 hours

 ConditionsComfort  
Time TempWeatherWind HumidityBarometerVisibility
11:00 AM
Nov 23
47 °FPartly sunny.3 mph79%30.21 "Hg6 mi
10:00 AM42 °FFog.3 mph85%30.21 "Hg4 mi
9:00 AM39 °FFog.2 mph91%30.21 "Hg4 mi
8:00 AM38 °FFog.3 mph92%30.19 "Hg4 mi
7:00 AM38 °FFog.2 mph93%30.19 "Hg4 mi
6:00 AM38 °FFog.2 mph92%30.19 "Hg4 mi
5:00 AM38 °FFog.2 mph92%30.19 "Hg3 mi
3:00 AM38 °FFog.3 mph92%30.19 "Hg3 mi
2:00 AM38 °FFog.5 mph91%30.19 "Hg3 mi
1:00 AM38 °FFog.5 mph90%30.20 "Hg4 mi
12:00 AM38 °FFog.3 mph90%30.21 "Hg4 mi
11:00 PM
Nov 22
39 °FFog.3 mph88%30.21 "Hg4 mi
9:00 PM41 °FFog.2 mph84%30.21 "Hg4 mi
8:00 PM41 °FPassing clouds.2 mph83%30.21 "Hg6 mi
7:00 PM42 °FOvercast.3 mph81%30.20 "Hg9 mi
6:00 PM43 °FPassing clouds.3 mph79%30.22 "Hg9 mi
5:00 PM43 °FPassing clouds.2 mph79%30.21 "Hg10 mi
4:00 PM44 °FPartly sunny.2 mph77%30.22 "Hg12 mi
3:00 PM45 °FScattered clouds.3 mph75%30.21 "Hg12 mi
2:00 PM45 °FScattered clouds.5 mph74%30.20 "Hg16 mi
1:00 PM46 °FPartly sunny.5 mph73%30.22 "Hg16 mi
12:00 PM44 °FPartly sunny.5 mph75%30.23 "Hg16 mi
Weather by CustomWeather, © 2014

See weather overviewHow to use our weather pages